HB9HUT-13 Weather Reports


time (UTC)temp
C
wind
direction
speed
KPH
gust
KPH
rain 1hr
cm
rain 24hr
cm
rain mn
cm
humidity
%
barometer
mb
20260502195230 15 0 0.0 0.0 0.00 0.00 0.00 42 849.3
20260502193727 16 0 0.0 0.0 0.00 0.00 0.00 42 849.2
20260502192224 16 0 0.0 0.0 0.00 0.00 0.00 41 849.1
20260502190721 16 0 0.0 0.0 0.00 0.00 0.00 41 849.1
20260502185218 17 0 0.0 0.0 0.00 0.00 0.00 41 849.1
20260502183715 17 0 0.0 0.0 0.00 0.00 0.00 40 849.0
20260502182212 17 0 0.0 0.0 0.00 0.00 0.00 40 848.9
20260502180709 17 0 0.0 0.0 0.00 0.00 0.00 44 848.8
20260502163651 19 0 0.0 0.0 0.00 0.00 0.00 39 848.8
20260502162148 20 0 0.0 0.0 0.00 0.00 0.00 37 849.0
20260502160645 23 0 0.0 0.0 0.00 0.00 0.00 33 849.1
20260502152136 23 0 0.0 0.0 0.00 0.00 0.00 34 849.4
20260502150633 23 0 0.0 0.0 0.00 0.00 0.00 35 849.5
20260502130609 23 0 0.0 0.0 0.00 0.00 0.00 35 850.6
20260502123603 25 0 0.0 0.0 0.00 0.00 0.00 38 850.9
20260502122100 25 0 0.0 0.0 0.00 0.00 0.00 37 851.0
20260502120557 23 0 0.0 0.0 0.00 0.00 0.00 39 851.1
20260502115054 27 0 0.0 0.0 0.00 0.00 0.00 39 851.2
20260502113551 26 0 0.0 0.0 0.00 0.00 0.00 40 851.3
20260502112048 26 0 0.0 0.0 0.00 0.00 0.00 39 851.5
20260502110545 24 0 0.0 0.0 0.00 0.00 0.00 41 851.7
20260502105042 23 0 0.0 0.0 0.00 0.00 0.00 41 851.8
20260502103539 23 0 0.0 0.0 0.00 0.00 0.00 41 851.9
20260502102036 24 0 0.0 0.0 0.00 0.00 0.00 42 852.1
20260502100533 22 0 0.0 0.0 0.00 0.00 0.00 42 852.2
20260502090521 21 0 0.0 0.0 0.00 0.00 0.00 44 852.5
20260502070457 17 0 0.0 0.0 0.00 0.00 0.00 44 852.6
20260502064954 16 0 0.0 0.0 0.00 0.00 0.00 44 852.6
20260502063452 15 0 0.0 0.0 0.00 0.00 0.00 45 852.7
20260502061948 14 0 0.0 0.0 0.00 0.00 0.00 45 852.6
20260502060445 13 0 0.0 0.0 0.00 0.00 0.00 46 852.6
20260502054942 12 0 0.0 0.0 0.00 0.00 0.00 47 852.7
20260502053439 11 0 0.0 0.0 0.00 0.00 0.00 48 852.6
20260502051936 10 0 0.0 0.0 0.00 0.00 0.00 48 852.6
20260502050433 10 0 0.0 0.0 0.00 0.00 0.00 48 852.6
20260502044930 10 0 0.0 0.0 0.00 0.00 0.00 49 852.6
20260502043427 10 0 0.0 0.0 0.00 0.00 0.00 49 852.6
20260502040421 10 0 0.0 0.0 0.00 0.00 0.00 49 852.6
20260502034918 10 0 0.0 0.0 0.00 0.00 0.00 48 852.5
20260502033415 10 0 0.0 0.0 0.00 0.00 0.00 49 852.5
20260502031912 10 0 0.0 0.0 0.00 0.00 0.00 48 852.5
20260502030409 10 0 0.0 0.0 0.00 0.00 0.00 49 852.6
20260502024906 10 0 0.0 0.0 0.00 0.00 0.00 48 852.6
20260502023403 10 0 0.0 0.0 0.00 0.00 0.00 48 852.6
20260502021900 10 0 0.0 0.0 0.00 0.00 0.00 47 852.7
20260502020357 10 0 0.0 0.0 0.00 0.00 0.00 47 852.7
20260502014854 10 0 0.0 0.0 0.00 0.00 0.00 47 852.7
20260502013352 10 0 0.0 0.0 0.00 0.00 0.00 48 852.7
20260502011848 10 0 0.0 0.0 0.00 0.00 0.00 47 852.7
20260502010345 10 0 0.0 0.0 0.00 0.00 0.00 47 852.8
20260502004842 10 0 0.0 0.0 0.00 0.00 0.00 47 852.9
20260502003339 10 0 0.0 0.0 0.00 0.00 0.00 47 852.9
20260502001836 10 0 0.0 0.0 0.00 0.00 0.00 46 853.0
20260502000333 10 0 0.0 0.0 0.00 0.00 0.00 47 853.1
20260501234830 10 0 0.0 0.0 0.00 0.00 0.00 47 853.2
20260501233327 11 0 0.0 0.0 0.00 0.00 0.00 47 853.3
20260501231824 11 0 0.0 0.0 0.00 0.00 0.00 47 853.3
20260501230321 11 0 0.0 0.0 0.00 0.00 0.00 47 853.3
20260501224818 11 0 0.0 0.0 0.00 0.00 0.00 46 853.2
20260501223315 11 0 0.0 0.0 0.00 0.00 0.00 46 853.3
20260501221812 11 0 0.0 0.0 0.00 0.00 0.00 46 853.3
20260501220309 11 0 0.0 0.0 0.00 0.00 0.00 45 853.3
20260501214806 12 0 0.0 0.0 0.00 0.00 0.00 47 853.3
20260501213303 12 0 0.0 0.0 0.00 0.00 0.00 47 853.3
20260501211800 12 0 0.0 0.0 0.00 0.00 0.00 46 853.4
20260501210257 12 0 0.0 0.0 0.00 0.00 0.00 46 853.4
20260501204754 12 0 0.0 0.0 0.00 0.00 0.00 46 853.3
20260501203252 13 0 0.0 0.0 0.00 0.00 0.00 45 853.4
20260501201748 13 0 0.0 0.0 0.00 0.00 0.00 44 853.3